Orbital Elements at Epoch 2459200.5 (2020-Dec-17.0) TDB
Reference: JPL 27 (heliocentric ecliptic J2000)
Element | Value | Uncertainty (1-sigma) | Units |
e | .1606509765667595 | 3.8624e-08 | |
a | 2.331310586489142 | 7.0164e-09 | au |
q | 1.956783264089237 | 9.153e-08 | au |
i | 4.083060233947531 | 4.3043e-06 | deg |
node | 37.5699993277202 | 5.3628e-05 | deg |
peri | 115.6308861971783 | 5.5104e-05 | deg |
M | 328.7223889711167 | 1.1888e-05 | deg |
tp | 2459313.461305850148 (2021-Apr-08.96130585) | 4.2985e-05 | TDB |
period | 1300.165478383248 3.56 | 5.8696e-06 1.607e-08 | d yr |
n | .2768878315763767 | 1.25e-09 | deg/d |
Q | 2.705837908889048 | 8.1436e-09 | au |
|
| | Orbit Determination Parameters
Additional Information
|